Location: ??????
(56.0120°N, 39.1740°E)
Time: 12:17:27
(UTC+00:00)

Cosmos 44 - Pass Details

Date: 14 April 2026
Orbit: 568 x 782 km, 65.1° (Epoch: 10 May)

Event Time Altitude Azimuth Distance (km) Brightness Sun altitude
Exits shadow 19:38:00 31° 102° (ESE) 1,292 4.3 -20.8°
Drops below altitude 10° 19:41:55 10° 58° (ENE) 2,315 6.0 -21.0°
Sets 19:44:34 0° 49° (NE) 3,263 6.9 -21.2°
